Prescott, AZ

9:12 PM MST on September 19, 2019 (GMT -0700)
Love

Weather History for KPRC - June, 2019

Change the Weather History Date:

Sunday, June 9, 2019

  Actual Average Record
Temperature  
Mean Temperature 70 °F 69 °F  
Max Temperature 88 °F 85 °F 98 °F (1955)
Min Temperature 52 °F 53 °F 35 °F (1995)
Degree Days  
Heating Degree Days 0    
Month to date heating degree days 2  
Since 1 July heating degree days 4330  
Cooling Degree Days 5    
Month to date cooling degree days 25  
Year to date cooling degree days 26  
Growing Degree Days 20 (Base 50)    
Moisture  
Dew Point 31 °F    
Average Humidity 26    
Maximum Humidity 52    
Minimum Humidity 10    
Precipitation  
Precipitation 0.00 in 0.01 in 0.20 in (1968)
Month to date precipitation 0.11 0.08  
Year to date precipitation 6.79 4.62  
Sea Level Pressure  
Sea Level Pressure 29.98 in    
Wind  
Wind Speed 4 mph ()    
Max Wind Speed 15 mph    
Max Gust Speed 18 mph    
Visibility 10.0 miles    
Events      
T = Trace of Precipitation, MM = Missing Value Source: Averaged Metar Reports

Daily Weather History Graph

Daily Weather History Graph

Search for Another Location

Airport or City:

Astronomy

Jun. 09, 2019 Rise Set
Actual Time 5:16 AM MST 7:41 PM MST
Civil Twilight 4:46 AM MST 8:11 PM MST
Nautical Twilight 4:10 AM MST 8:47 PM MST
Astronomical Twilight 3:31 AM MST 9:27 PM MST
Moon 11:50 AM MST (6/9) 12:31 AM MST (6/9)
Length of Visible Light 15h 24m
Length of Day
14h 25m
Waxing Crescent, 45% of the Moon is Illuminated
Jun 9
Waxing Crescent
Jun 9
First Quarter
Jun 17
Full
Jun 25
Last Quarter
Jul 2
New

Hourly Weather History & Observations

Time (MST) Temp. Dew Point Humidity Pressure Visibility Wind Dir Wind Speed Gust Speed Precip Events Conditions
12:53 AM 59.0 °F 35.1 °F 41% 29.94 in 10.0 mi SW 4.6 mph - N/A   Clear
1:53 AM 57.0 °F 36.0 °F 45% 29.94 in 10.0 mi Calm Calm - N/A   Clear
2:53 AM 55.0 °F 37.0 °F 51% 29.96 in 10.0 mi South 4.6 mph - N/A   Clear
3:53 AM 55.9 °F 35.1 °F 45% 29.97 in 10.0 mi SW 4.6 mph - N/A   Clear
4:53 AM 53.1 °F 36.0 °F 52% 29.99 in 10.0 mi SSW 4.6 mph - N/A   Clear
5:53 AM 55.0 °F 35.1 °F 47% 30.02 in 10.0 mi WNW 4.6 mph - N/A   Clear
6:53 AM 63.0 °F 33.1 °F 33% 30.03 in 10.0 mi WNW 5.8 mph - N/A   Clear
7:53 AM 66.9 °F 32.0 °F 27% 30.05 in 10.0 mi NNW 4.6 mph - N/A   Clear
8:53 AM 72.0 °F 32.0 °F 23% 30.04 in 10.0 mi NNE 4.6 mph - N/A   Clear
9:53 AM 75.9 °F 33.1 °F 21% 30.04 in 10.0 mi East 4.6 mph - N/A   Clear
10:53 AM 79.0 °F 33.1 °F 19% 30.03 in 10.0 mi Variable 3.5 mph - N/A   Clear
11:53 AM 82.0 °F 28.9 °F 14% 30.01 in 10.0 mi Variable 3.5 mph - N/A   Clear
12:53 PM 84.0 °F 26.1 °F 12% 30.01 in 10.0 mi Variable 4.6 mph - N/A   Clear
1:53 PM 84.0 °F 27.0 °F 13% 30.00 in 10.0 mi Variable 4.6 mph - N/A   Clear
2:53 PM 87.1 °F 25.0 °F 10% 29.99 in 10.0 mi ESE 9.2 mph - N/A   Clear
3:53 PM 87.1 °F 27.0 °F 11% 29.96 in 10.0 mi SE 8.1 mph - N/A   Clear
4:53 PM 86.0 °F 26.1 °F 11% 29.96 in 10.0 mi South 8.1 mph - N/A   Clear
5:53 PM 84.9 °F 27.0 °F 12% 29.95 in 10.0 mi WSW 4.6 mph - N/A   Clear
6:53 PM 84.0 °F 25.0 °F 12% 29.92 in 10.0 mi SE 3.5 mph - N/A   Clear
7:53 PM 80.1 °F 27.0 °F 14% 29.93 in 10.0 mi East 6.9 mph - N/A   Clear
8:53 PM 73.9 °F 30.0 °F 20% 29.96 in 10.0 mi South 5.8 mph - N/A   Clear
9:53 PM 73.0 °F 30.9 °F 21% 29.96 in 10.0 mi South 6.9 mph - N/A   Clear
10:53 PM 69.1 °F 30.9 °F 24% 29.98 in 10.0 mi SSW 4.6 mph - N/A   Clear
11:53 PM 61.0 °F 32.0 °F 34% 29.99 in 10.0 mi NE 4.6 mph - N/A   Clear